Datum;"Wasserstand in cm";"Stationsnummer: 5826801";"Stationsname: Alt M�nchwinkel 2";"Gew?sser: Spree";"Fehlwerte: -777"
"19.03.2024 00:00";127
"19.03.2024 00:15";127
"19.03.2024 00:30";127
"19.03.2024 00:45";127
"19.03.2024 01:00";127
"19.03.2024 01:15";127
"19.03.2024 01:30";127
"19.03.2024 01:45";127
"19.03.2024 02:00";127
"19.03.2024 02:15";127
"19.03.2024 02:30";127
"19.03.2024 02:45";127
"19.03.2024 03:00";127
"19.03.2024 03:15";127
"19.03.2024 03:30";127
"19.03.2024 03:45";127
"19.03.2024 04:00";127
"19.03.2024 04:15";127
"19.03.2024 04:30";126
"19.03.2024 04:45";126
"19.03.2024 05:00";126
"19.03.2024 05:15";126
"19.03.2024 05:30";126
"19.03.2024 05:45";126
"19.03.2024 06:00";126
"19.03.2024 06:15";126
"19.03.2024 06:30";126
"19.03.2024 06:45";126
"19.03.2024 07:00";126
"19.03.2024 07:15";126
"19.03.2024 07:30";126
"19.03.2024 07:45";126
"19.03.2024 08:00";126
"19.03.2024 08:15";126
"19.03.2024 08:30";126
"19.03.2024 08:45";126
"19.03.2024 09:00";125
"19.03.2024 09:15";125
"19.03.2024 09:30";125
"19.03.2024 09:45";125
"19.03.2024 10:00";125
"19.03.2024 10:15";125
"19.03.2024 10:30";125
"19.03.2024 10:45";125
"19.03.2024 11:00";125
"19.03.2024 11:15";125
"19.03.2024 11:30";125
"19.03.2024 11:45";125
"19.03.2024 12:00";125
"19.03.2024 12:15";125
"19.03.2024 12:30";125
"19.03.2024 12:45";125
"19.03.2024 13:00";125
"19.03.2024 13:15";125
"19.03.2024 13:30";124
"19.03.2024 13:45";124
"19.03.2024 14:00";124
"19.03.2024 14:15";124
"19.03.2024 14:30";124
"19.03.2024 14:45";124
"19.03.2024 15:00";124
"19.03.2024 15:15";123
"19.03.2024 15:30";123
"19.03.2024 15:45";123
"19.03.2024 16:00";123
"19.03.2024 16:15";123
"19.03.2024 16:30";123
"19.03.2024 16:45";123
"19.03.2024 17:00";123
"19.03.2024 17:15";122
"19.03.2024 17:30";122
"19.03.2024 17:45";122
"19.03.2024 18:00";122
"19.03.2024 18:15";122
"19.03.2024 18:30";122
"19.03.2024 18:45";122
"19.03.2024 19:00";122
"19.03.2024 19:15";122
"19.03.2024 19:30";122
"19.03.2024 19:45";121
"19.03.2024 20:00";121
"19.03.2024 20:15";121
"19.03.2024 20:30";121
"19.03.2024 20:45";121
"19.03.2024 21:00";121
"19.03.2024 21:15";121
"19.03.2024 21:30";121
"19.03.2024 21:45";120
"19.03.2024 22:00";120
"19.03.2024 22:15";120
"19.03.2024 22:30";120
"19.03.2024 22:45";120
"19.03.2024 23:00";120
"19.03.2024 23:15";120
"19.03.2024 23:30";120
"19.03.2024 23:45";120
"20.03.2024 00:00";120
"20.03.2024 00:15";120
"20.03.2024 00:30";120
"20.03.2024 00:45";120
"20.03.2024 01:00";119
"20.03.2024 01:15";119
"20.03.2024 01:30";119
"20.03.2024 01:45";119
"20.03.2024 02:00";119
"20.03.2024 02:15";119
"20.03.2024 02:30";119
"20.03.2024 02:45";119
"20.03.2024 03:00";119
"20.03.2024 03:15";119
"20.03.2024 03:30";119
"20.03.2024 03:45";119
"20.03.2024 04:00";119
"20.03.2024 04:15";119
"20.03.2024 04:30";119
"20.03.2024 04:45";119
"20.03.2024 05:00";119
"20.03.2024 05:15";119
"20.03.2024 05:30";119
"20.03.2024 05:45";119
"20.03.2024 06:00";118
"20.03.2024 06:15";118
"20.03.2024 06:30";118
"20.03.2024 06:45";118
"20.03.2024 07:00";118
"20.03.2024 07:15";118
"20.03.2024 07:30";118
"20.03.2024 07:45";118
"20.03.2024 08:00";118
"20.03.2024 08:15";118
"20.03.2024 08:30";118
"20.03.2024 08:45";118
"20.03.2024 09:00";118
"20.03.2024 09:15";118
"20.03.2024 09:30";118
"20.03.2024 09:45";118
"20.03.2024 10:00";118
"20.03.2024 10:15";118
"20.03.2024 10:30";118
"20.03.2024 10:45";118
"20.03.2024 11:00";118
"20.03.2024 11:15";118
"20.03.2024 11:30";118
"20.03.2024 11:45";118
"20.03.2024 12:00";118
"20.03.2024 12:15";118
"20.03.2024 12:30";118
"20.03.2024 12:45";118
"20.03.2024 13:00";117
"20.03.2024 13:15";117
"20.03.2024 13:30";117
"20.03.2024 13:45";117
"20.03.2024 14:00";117
"20.03.2024 14:15";117
"20.03.2024 14:30";117
"20.03.2024 14:45";117
"20.03.2024 15:00";117
"20.03.2024 15:15";116
"20.03.2024 15:30";116
"20.03.2024 15:45";116
"20.03.2024 16:00";115
"20.03.2024 16:15";115
"20.03.2024 16:30";114
"20.03.2024 16:45";113
"20.03.2024 17:00";112
"20.03.2024 17:15";112
"20.03.2024 17:30";111
"20.03.2024 17:45";110
"20.03.2024 18:00";109
"20.03.2024 18:15";108
"20.03.2024 18:30";107
"20.03.2024 18:45";105
"20.03.2024 19:00";104
"20.03.2024 19:15";103
"20.03.2024 19:30";102
"20.03.2024 19:45";101
"20.03.2024 20:00";100
"20.03.2024 20:15";99
"20.03.2024 20:30";98
"20.03.2024 20:45";97
"20.03.2024 21:00";96
"20.03.2024 21:15";94
"20.03.2024 21:30";93
"20.03.2024 21:45";93
"20.03.2024 22:00";92
"20.03.2024 22:15";91
"20.03.2024 22:30";90
"20.03.2024 22:45";89
"20.03.2024 23:00";88
"20.03.2024 23:15";87
"20.03.2024 23:30";87
"20.03.2024 23:45";86
"21.03.2024 00:00";85
"21.03.2024 00:15";84
"21.03.2024 00:30";84
"21.03.2024 00:45";83
"21.03.2024 01:00";82
"21.03.2024 01:15";82
"21.03.2024 01:30";81
"21.03.2024 01:45";81
"21.03.2024 02:00";80
"21.03.2024 02:15";80
"21.03.2024 02:30";79
"21.03.2024 02:45";79
"21.03.2024 03:00";79
"21.03.2024 03:15";80
"21.03.2024 03:30";80
"21.03.2024 03:45";81
"21.03.2024 04:00";82
"21.03.2024 04:15";83
"21.03.2024 04:30";84
"21.03.2024 04:45";85
"21.03.2024 05:00";87
"21.03.2024 05:15";88
"21.03.2024 05:30";90
"21.03.2024 05:45";91
"21.03.2024 06:00";92
"21.03.2024 06:15";93
"21.03.2024 06:30";95
"21.03.2024 06:45";96
"21.03.2024 07:00";97
"21.03.2024 07:15";98
"21.03.2024 07:30";99
"21.03.2024 07:45";100
"21.03.2024 08:00";101
"21.03.2024 08:15";102
"21.03.2024 08:30";102
"21.03.2024 08:45";103
"21.03.2024 09:00";104
"21.03.2024 09:15";104
"21.03.2024 09:30";105
"21.03.2024 09:45";106
"21.03.2024 10:00";106
"21.03.2024 10:15";107
"21.03.2024 10:30";108
"21.03.2024 10:45";108
"21.03.2024 11:00";109
"21.03.2024 11:15";110
"21.03.2024 11:30";110
"21.03.2024 11:45";111
"21.03.2024 12:00";111
"21.03.2024 12:15";112
"21.03.2024 12:30";112
"21.03.2024 12:45";113
"21.03.2024 13:00";113
"21.03.2024 13:15";114
"21.03.2024 13:30";114
"21.03.2024 13:45";115
"21.03.2024 14:00";115
"21.03.2024 14:15";116
"21.03.2024 14:30";116
"21.03.2024 14:45";116
"21.03.2024 15:00";116
"21.03.2024 15:15";117
"21.03.2024 15:30";117
"21.03.2024 15:45";117
"21.03.2024 16:00";118
"21.03.2024 16:15";118
"21.03.2024 16:30";118
"21.03.2024 16:45";119
"21.03.2024 17:00";119
"21.03.2024 17:15";119
"21.03.2024 17:30";120
"21.03.2024 17:45";120
"21.03.2024 18:00";120
"21.03.2024 18:15";120
"21.03.2024 18:30";120
"21.03.2024 18:45";121
"21.03.2024 19:00";121
"21.03.2024 19:15";121
"21.03.2024 19:30";121
"21.03.2024 19:45";121
"21.03.2024 20:00";121
"21.03.2024 20:15";121
"21.03.2024 20:30";122
"21.03.2024 20:45";122
"21.03.2024 21:00";122
"21.03.2024 21:15";122
"21.03.2024 21:30";122
"21.03.2024 21:45";122
"21.03.2024 22:00";122
"21.03.2024 22:15";122
"21.03.2024 22:30";122
"21.03.2024 22:45";122
"21.03.2024 23:00";122
"21.03.2024 23:15";122
"21.03.2024 23:30";122
"21.03.2024 23:45";122
"22.03.2024 00:00";122
"22.03.2024 00:15";122
"22.03.2024 00:30";122
"22.03.2024 00:45";122
"22.03.2024 01:00";122
"22.03.2024 01:15";122
"22.03.2024 01:30";122
"22.03.2024 01:45";123
"22.03.2024 02:00";122
"22.03.2024 02:15";123
"22.03.2024 02:30";123
"22.03.2024 02:45";123
"22.03.2024 03:00";123
"22.03.2024 03:15";123
"22.03.2024 03:30";123
"22.03.2024 03:45";123
"22.03.2024 04:00";123
"22.03.2024 04:15";123
"22.03.2024 04:30";123
"22.03.2024 04:45";123
"22.03.2024 05:00";123
"22.03.2024 05:15";123
"22.03.2024 05:30";123
"22.03.2024 05:45";123
"22.03.2024 06:00";123
"22.03.2024 06:15";123
"22.03.2024 06:30";123
"22.03.2024 06:45";123
"22.03.2024 07:00";123
"22.03.2024 07:15";123
"22.03.2024 07:30";123
"22.03.2024 07:45";123
"22.03.2024 08:00";123
"22.03.2024 08:15";123
"22.03.2024 08:30";123
"22.03.2024 08:45";123
"22.03.2024 09:00";123
"22.03.2024 09:15";123
"22.03.2024 09:30";123
"22.03.2024 09:45";123
"22.03.2024 10:00";123
"22.03.2024 10:15";123
"22.03.2024 10:30";123
"22.03.2024 10:45";123
"22.03.2024 11:00";123
"22.03.2024 11:15";123
"22.03.2024 11:30";123
"22.03.2024 11:45";123
"22.03.2024 12:00";123
"22.03.2024 12:15";123
"22.03.2024 12:30";123
"22.03.2024 12:45";123
"22.03.2024 13:00";123
"22.03.2024 13:15";123
"22.03.2024 13:30";123
"22.03.2024 13:45";123
"22.03.2024 14:00";123
"22.03.2024 14:15";123
"22.03.2024 14:30";123
"22.03.2024 14:45";123
"22.03.2024 15:00";123
"22.03.2024 15:15";123
"22.03.2024 15:30";123
"22.03.2024 15:45";123
"22.03.2024 16:00";123
"22.03.2024 16:15";123
"22.03.2024 16:30";124
"22.03.2024 16:45";124
"22.03.2024 17:00";124
"22.03.2024 17:15";124
"22.03.2024 17:30";124
"22.03.2024 17:45";123
"22.03.2024 18:00";123
"22.03.2024 18:15";124
"22.03.2024 18:30";124
"22.03.2024 18:45";124
"22.03.2024 19:00";124
"22.03.2024 19:15";124
"22.03.2024 19:30";124
"22.03.2024 19:45";124
"22.03.2024 20:00";124
"22.03.2024 20:15";124
"22.03.2024 20:30";124
"22.03.2024 20:45";124
"22.03.2024 21:00";124
"22.03.2024 21:15";124
"22.03.2024 21:30";124
"22.03.2024 21:45";124
"22.03.2024 22:00";124
"22.03.2024 22:15";124
"22.03.2024 22:30";124
"22.03.2024 22:45";125
"22.03.2024 23:00";125
"22.03.2024 23:15";125
"22.03.2024 23:30";125
"22.03.2024 23:45";125
"23.03.2024 00:00";125
"23.03.2024 00:15";125
"23.03.2024 00:30";125
"23.03.2024 00:45";126
"23.03.2024 01:00";126
"23.03.2024 01:15";126
"23.03.2024 01:30";126
"23.03.2024 01:45";126
"23.03.2024 02:00";126
"23.03.2024 02:15";126
"23.03.2024 02:30";126
"23.03.2024 02:45";126
"23.03.2024 03:00";127
"23.03.2024 03:15";127
"23.03.2024 03:30";127
"23.03.2024 03:45";127
"23.03.2024 04:00";127
"23.03.2024 04:15";127
"23.03.2024 04:30";127
"23.03.2024 04:45";127
"23.03.2024 05:00";127
"23.03.2024 05:15";128
"23.03.2024 05:30";128
"23.03.2024 05:45";128
"23.03.2024 06:00";128
"23.03.2024 06:15";128
"23.03.2024 06:30";128
"23.03.2024 06:45";129
"23.03.2024 07:00";129
"23.03.2024 07:15";129
"23.03.2024 07:30";129
"23.03.2024 07:45";129
"23.03.2024 08:00";130
"23.03.2024 08:15";130
"23.03.2024 08:30";130
"23.03.2024 08:45";131
"23.03.2024 09:00";131
"23.03.2024 09:15";131
"23.03.2024 09:30";131
"23.03.2024 09:45";132
"23.03.2024 10:00";132
"23.03.2024 10:15";132
"23.03.2024 10:30";133
"23.03.2024 10:45";133
"23.03.2024 11:00";133
"23.03.2024 11:15";134
"23.03.2024 11:30";134
"23.03.2024 11:45";134
"23.03.2024 12:00";135
"23.03.2024 12:15";135
"23.03.2024 12:30";135
"23.03.2024 12:45";135
"23.03.2024 13:00";136
"23.03.2024 13:15";136
"23.03.2024 13:30";136
"23.03.2024 13:45";137
"23.03.2024 14:00";137
"23.03.2024 14:15";137
"23.03.2024 14:30";137
"23.03.2024 14:45";137
"23.03.2024 15:00";138
"23.03.2024 15:15";138
"23.03.2024 15:30";138
"23.03.2024 15:45";138
"23.03.2024 16:00";138
"23.03.2024 16:15";138
"23.03.2024 16:30";139
"23.03.2024 16:45";139
"23.03.2024 17:00";139
"23.03.2024 17:15";139
"23.03.2024 17:30";139
"23.03.2024 17:45";139
"23.03.2024 18:00";139
"23.03.2024 18:15";139
"23.03.2024 18:30";140
"23.03.2024 18:45";140
"23.03.2024 19:00";140
"23.03.2024 19:15";140
"23.03.2024 19:30";140
"23.03.2024 19:45";140
"23.03.2024 20:00";140
"23.03.2024 20:15";140
"23.03.2024 20:30";140
"23.03.2024 20:45";141
"23.03.2024 21:00";141
"23.03.2024 21:15";141
"23.03.2024 21:30";141
"23.03.2024 21:45";141
"23.03.2024 22:00";141
"23.03.2024 22:15";141
"23.03.2024 22:30";141
"23.03.2024 22:45";141
"23.03.2024 23:00";141
"23.03.2024 23:15";141
"23.03.2024 23:30";142
"23.03.2024 23:45";142
"24.03.2024 00:00";142
"24.03.2024 00:15";142
"24.03.2024 00:30";142
"24.03.2024 00:45";142
"24.03.2024 01:00";142
"24.03.2024 01:15";142
"24.03.2024 01:30";142
"24.03.2024 01:45";142
"24.03.2024 02:00";142
"24.03.2024 02:15";142
"24.03.2024 02:30";142
"24.03.2024 02:45";142
"24.03.2024 03:00";142
"24.03.2024 03:15";142
"24.03.2024 03:30";142
"24.03.2024 03:45";143
"24.03.2024 04:00";143
"24.03.2024 04:15";143
"24.03.2024 04:30";143
"24.03.2024 04:45";143
"24.03.2024 05:00";143
"24.03.2024 05:15";143
"24.03.2024 05:30";143
"24.03.2024 05:45";143
"24.03.2024 06:00";143
"24.03.2024 06:15";143
"24.03.2024 06:30";143
"24.03.2024 06:45";143
"24.03.2024 07:00";143
"24.03.2024 07:15";143
"24.03.2024 07:30";143
"24.03.2024 07:45";143
"24.03.2024 08:00";143
"24.03.2024 08:15";143
"24.03.2024 08:30";143
"24.03.2024 08:45";143
"24.03.2024 09:00";143
"24.03.2024 09:15";143
"24.03.2024 09:30";143
"24.03.2024 09:45";143
"24.03.2024 10:00";143
"24.03.2024 10:15";144
"24.03.2024 10:30";144
"24.03.2024 10:45";144
"24.03.2024 11:00";144
"24.03.2024 11:15";144
"24.03.2024 11:30";144
"24.03.2024 11:45";144
"24.03.2024 12:00";144
"24.03.2024 12:15";144
"24.03.2024 12:30";144
"24.03.2024 12:45";144
"24.03.2024 13:00";143
"24.03.2024 13:15";143
"24.03.2024 13:30";143
"24.03.2024 13:45";143
"24.03.2024 14:00";143
"24.03.2024 14:15";143
"24.03.2024 14:30";143
"24.03.2024 14:45";143
"24.03.2024 15:00";143
"24.03.2024 15:15";143
"24.03.2024 15:30";143
"24.03.2024 15:45";143
"24.03.2024 16:00";143
"24.03.2024 16:15";142
"24.03.2024 16:30";142
"24.03.2024 16:45";142
"24.03.2024 17:00";142
"24.03.2024 17:15";142
"24.03.2024 17:30";142
"24.03.2024 17:45";142
"24.03.2024 18:00";142
"24.03.2024 18:15";142
"24.03.2024 18:30";142
"24.03.2024 18:45";142
"24.03.2024 19:00";142
"24.03.2024 19:15";141
"24.03.2024 19:30";141
"24.03.2024 19:45";141
"24.03.2024 20:00";141
"24.03.2024 20:15";141
"24.03.2024 20:30";141
"24.03.2024 20:45";141
"24.03.2024 21:00";141
"24.03.2024 21:15";141
"24.03.2024 21:30";141
"24.03.2024 21:45";141
"24.03.2024 22:00";141
"24.03.2024 22:15";141
"24.03.2024 22:30";141
"24.03.2024 22:45";141
"24.03.2024 23:00";140
"24.03.2024 23:15";141
"24.03.2024 23:30";140
"24.03.2024 23:45";140
"25.03.2024 00:00";140
"25.03.2024 00:15";140
"25.03.2024 00:30";140
"25.03.2024 00:45";140
"25.03.2024 01:00";140
"25.03.2024 01:15";140
"25.03.2024 01:30";140
"25.03.2024 01:45";140
"25.03.2024 02:00";140
"25.03.2024 02:15";140
"25.03.2024 02:30";140
"25.03.2024 02:45";140
"25.03.2024 03:00";140
"25.03.2024 03:15";140
"25.03.2024 03:30";140
"25.03.2024 03:45";140
"25.03.2024 04:00";140
"25.03.2024 04:15";140
"25.03.2024 04:30";140
"25.03.2024 04:45";140
"25.03.2024 05:00";140
"25.03.2024 05:15";141
"25.03.2024 05:30";141
"25.03.2024 05:45";141
"25.03.2024 06:00";141
"25.03.2024 06:15";141
"25.03.2024 06:30";141
"25.03.2024 06:45";141
"25.03.2024 07:00";141
"25.03.2024 07:15";141
"25.03.2024 07:30";141
"25.03.2024 07:45";141
"25.03.2024 08:00";141
"25.03.2024 08:15";141
"25.03.2024 08:30";141
"25.03.2024 08:45";141
"25.03.2024 09:00";141
"25.03.2024 09:15";141
"25.03.2024 09:30";141
"25.03.2024 09:45";141
"25.03.2024 10:00";141
"25.03.2024 10:15";141
"25.03.2024 10:30";141
"25.03.2024 10:45";141
"25.03.2024 11:00";141
"25.03.2024 11:15";142
"25.03.2024 11:30";142
"25.03.2024 11:45";142
"25.03.2024 12:00";142
"25.03.2024 12:15";142
"25.03.2024 12:30";142
"25.03.2024 12:45";142
"25.03.2024 13:00";142
"25.03.2024 13:15";142
"25.03.2024 13:30";142
"25.03.2024 13:45";142
"25.03.2024 14:00";142
"25.03.2024 14:15";142
"25.03.2024 14:30";142
"25.03.2024 14:45";142
"25.03.2024 15:00";142
"25.03.2024 15:15";142
"25.03.2024 15:30";142
"25.03.2024 15:45";142
"25.03.2024 16:00";142
"25.03.2024 16:15";142
"25.03.2024 16:30";142
"25.03.2024 16:45";142
"25.03.2024 17:00";142
"25.03.2024 17:15";143
"25.03.2024 17:30";143
"25.03.2024 17:45";143
"25.03.2024 18:00";143
"25.03.2024 18:15";143
"25.03.2024 18:30";143
"25.03.2024 18:45";143
"25.03.2024 19:00";143
"25.03.2024 19:15";143
"25.03.2024 19:30";144
"25.03.2024 19:45";144
"25.03.2024 20:00";144
"25.03.2024 20:15";144
"25.03.2024 20:30";144
"25.03.2024 20:45";144
"25.03.2024 21:00";145
"25.03.2024 21:15";145
"25.03.2024 21:30";145
"25.03.2024 21:45";145
"25.03.2024 22:00";145
"25.03.2024 22:15";146
"25.03.2024 22:30";146
"25.03.2024 22:45";146
"25.03.2024 23:00";146
"25.03.2024 23:15";146
"25.03.2024 23:30";147
"25.03.2024 23:45";147
"26.03.2024 00:00";147
"26.03.2024 00:15";147
"26.03.2024 00:30";147
"26.03.2024 00:45";148
"26.03.2024 01:00";148
"26.03.2024 01:15";148
"26.03.2024 01:30";148
"26.03.2024 01:45";148
"26.03.2024 02:00";149
"26.03.2024 02:15";149
"26.03.2024 02:30";149
"26.03.2024 02:45";149
"26.03.2024 03:00";149
"26.03.2024 03:15";149
"26.03.2024 03:30";150
"26.03.2024 03:45";150
"26.03.2024 04:00";150
"26.03.2024 04:15";150
"26.03.2024 04:30";150
"26.03.2024 04:45";150
"26.03.2024 05:00";150
"26.03.2024 05:15";150
"26.03.2024 05:30";151
"26.03.2024 05:45";151
"26.03.2024 06:00";151
"26.03.2024 06:15";151
"26.03.2024 06:30";151
"26.03.2024 06:45";151
"26.03.2024 07:00";151
"26.03.2024 07:15";151
"26.03.2024 07:30";151
"26.03.2024 07:45";152
"26.03.2024 08:00";152
"26.03.2024 08:15";152
"26.03.2024 08:30";152
"26.03.2024 08:45";152
"26.03.2024 09:00";152
"26.03.2024 09:15";152
"26.03.2024 09:30";152
"26.03.2024 09:45";152
"26.03.2024 10:00";152
"26.03.2024 10:15";152
"26.03.2024 10:30";152
"26.03.2024 10:45";152
"26.03.2024 11:00";152
"26.03.2024 11:15";152
"26.03.2024 11:30";152
"26.03.2024 11:45";152
"26.03.2024 12:00";153
"26.03.2024 12:15";152
"26.03.2024 12:30";152
"26.03.2024 12:45";152
"26.03.2024 13:00";152
"26.03.2024 13:15";152
"26.03.2024 13:30";152
"26.03.2024 13:45";152
"26.03.2024 14:00";151
"26.03.2024 14:15";151
"26.03.2024 14:30";151
"26.03.2024 14:45";151
"26.03.2024 15:00";151
"26.03.2024 15:15";150
"26.03.2024 15:30";150
"26.03.2024 15:45";150
"26.03.2024 16:00";150
"26.03.2024 16:15";149
"26.03.2024 16:30";149
"26.03.2024 16:45";149
"26.03.2024 17:00";148
"26.03.2024 17:15";148
"26.03.2024 17:30";148
"26.03.2024 17:45";148
"26.03.2024 18:00";147
"26.03.2024 18:15";147
"26.03.2024 18:30";147
"26.03.2024 18:45";146
"26.03.2024 19:00";146
"26.03.2024 19:15";146
"26.03.2024 19:30";146
"26.03.2024 19:45";145
"26.03.2024 20:00";145
"26.03.2024 20:15";145
"26.03.2024 20:30";144
"26.03.2024 20:45";144
"26.03.2024 21:00";144
"26.03.2024 21:15";144
"26.03.2024 21:30";143
"26.03.2024 21:45";143
"26.03.2024 22:00";143
"26.03.2024 22:15";143
"26.03.2024 22:30";143
"26.03.2024 22:45";142
"26.03.2024 23:00";142
"26.03.2024 23:15";142
"26.03.2024 23:30";142
"26.03.2024 23:45";142
"27.03.2024 00:00";142
"27.03.2024 00:15";142
"27.03.2024 00:30";141
"27.03.2024 00:45";141
"27.03.2024 01:00";141
"27.03.2024 01:15";141
"27.03.2024 01:30";141
"27.03.2024 01:45";141
"27.03.2024 02:00";141
"27.03.2024 02:15";141
"27.03.2024 02:30";141
"27.03.2024 02:45";141
"27.03.2024 03:00";141
"27.03.2024 03:15";141
"27.03.2024 03:30";140
"27.03.2024 03:45";140
"27.03.2024 04:00";140
"27.03.2024 04:15";140
"27.03.2024 04:30";140
"27.03.2024 04:45";140
"27.03.2024 05:00";140
"27.03.2024 05:15";140
"27.03.2024 05:30";140
"27.03.2024 05:45";140
"27.03.2024 06:00";140
"27.03.2024 06:15";140
"27.03.2024 06:30";140
"27.03.2024 06:45";140
"27.03.2024 07:00";140
"27.03.2024 07:15";140
"27.03.2024 07:30";140
"27.03.2024 07:45";140
"27.03.2024 08:00";140
"27.03.2024 08:15";140
"27.03.2024 08:30";140
"27.03.2024 08:45";140
"27.03.2024 09:00";140
"27.03.2024 09:15";140
"27.03.2024 09:30";140
"27.03.2024 09:45";140
"27.03.2024 10:00";140
"27.03.2024 10:15";140
"27.03.2024 10:30";140
"27.03.2024 10:45";140
"27.03.2024 11:00";140
"27.03.2024 11:15";140
"27.03.2024 11:30";140
"27.03.2024 11:45";140
"27.03.2024 12:00";140
"27.03.2024 12:15";140
"27.03.2024 12:30";140
"27.03.2024 12:45";140
"27.03.2024 13:00";140
"27.03.2024 13:15";140
"27.03.2024 13:30";140
"27.03.2024 13:45";140
"27.03.2024 14:00";140
"27.03.2024 14:15";140
"27.03.2024 14:30";139
"27.03.2024 14:45";139
"27.03.2024 15:00";139
"27.03.2024 15:15";139
"27.03.2024 15:30";139
"27.03.2024 15:45";139
"27.03.2024 16:00";139
"27.03.2024 16:15";139
"27.03.2024 16:30";139
"27.03.2024 16:45";139
"27.03.2024 17:00";139
"27.03.2024 17:15";139
"27.03.2024 17:30";139
"27.03.2024 17:45";139
"27.03.2024 18:00";138
"27.03.2024 18:15";138
"27.03.2024 18:30";138
"27.03.2024 18:45";138
"27.03.2024 19:00";138
"27.03.2024 19:15";138
"27.03.2024 19:30";138
"27.03.2024 19:45";138
"27.03.2024 20:00";138
"27.03.2024 20:15";138
"27.03.2024 20:30";138
"27.03.2024 20:45";138
"27.03.2024 21:00";138
"27.03.2024 21:15";138
"27.03.2024 21:30";138
"27.03.2024 21:45";138
"27.03.2024 22:00";138
"27.03.2024 22:15";138
"27.03.2024 22:30";138
"27.03.2024 22:45";138
"27.03.2024 23:00";138
"27.03.2024 23:15";138
"27.03.2024 23:30";138
"27.03.2024 23:45";138
"28.03.2024 00:00";138
"28.03.2024 00:15";138
"28.03.2024 00:30";138
"28.03.2024 00:45";138
"28.03.2024 01:00";138
"28.03.2024 01:15";138
"28.03.2024 01:30";138
"28.03.2024 01:45";138
"28.03.2024 02:00";138
"28.03.2024 02:15";138
"28.03.2024 02:30";138
"28.03.2024 02:45";138
"28.03.2024 03:00";138
"28.03.2024 03:15";138
"28.03.2024 03:30";138
"28.03.2024 03:45";138
"28.03.2024 04:00";138
"28.03.2024 04:15";138
"28.03.2024 04:30";138
"28.03.2024 04:45";138
"28.03.2024 05:00";138
"28.03.2024 05:15";138
"28.03.2024 05:30";138
"28.03.2024 05:45";138
"28.03.2024 06:00";138
"28.03.2024 06:15";138
"28.03.2024 06:30";138
"28.03.2024 06:45";138
"28.03.2024 07:00";138
"28.03.2024 07:15";138
"28.03.2024 07:30";138
"28.03.2024 07:45";138
"28.03.2024 08:00";138
"28.03.2024 08:15";139
"28.03.2024 08:30";139
"28.03.2024 08:45";139
"28.03.2024 09:00";139
"28.03.2024 09:15";139
"28.03.2024 09:30";139
"28.03.2024 09:45";139
"28.03.2024 10:00";139
"28.03.2024 10:15";139
"28.03.2024 10:30";139
"28.03.2024 10:45";139
"28.03.2024 11:00";139
"28.03.2024 11:15";139
"28.03.2024 11:30";140
"28.03.2024 11:45";140
"28.03.2024 12:00";140
"28.03.2024 12:15";140
"28.03.2024 12:30";140
"28.03.2024 12:45";140
"28.03.2024 13:00";140
"28.03.2024 13:15";140
"28.03.2024 13:30";140
"28.03.2024 13:45";140
"28.03.2024 14:00";140
"28.03.2024 14:15";140
"28.03.2024 14:30";140
"28.03.2024 14:45";140
"28.03.2024 15:00";140
"28.03.2024 15:15";140
"28.03.2024 15:30";140
"28.03.2024 15:45";140
"28.03.2024 16:00";140
"28.03.2024 16:15";140
"28.03.2024 16:30";140
"28.03.2024 16:45";140
"28.03.2024 17:00";140
"28.03.2024 17:15";140
"28.03.2024 17:30";140
"28.03.2024 17:45";139
"28.03.2024 18:00";139
"28.03.2024 18:15";139
"28.03.2024 18:30";139
"28.03.2024 18:45";139
"28.03.2024 19:00";139
"28.03.2024 19:15";139
"28.03.2024 19:30";139
"28.03.2024 19:45";138
"28.03.2024 20:00";138
"28.03.2024 20:15";138
"28.03.2024 20:30";138
"28.03.2024 20:45";138
"28.03.2024 21:00";138
"28.03.2024 21:15";137
"28.03.2024 21:30";137
"28.03.2024 21:45";137
"28.03.2024 22:00";137
"28.03.2024 22:15";137
"28.03.2024 22:30";137
"28.03.2024 22:45";137
"28.03.2024 23:00";137
"28.03.2024 23:15";137
"28.03.2024 23:30";137
"28.03.2024 23:45";136
"29.03.2024 00:00";136
"29.03.2024 00:15";136
"29.03.2024 00:30";136
"29.03.2024 00:45";136
"29.03.2024 01:00";136
"29.03.2024 01:15";136
"29.03.2024 01:30";136
"29.03.2024 01:45";136
"29.03.2024 02:00";136
"29.03.2024 02:15";136
"29.03.2024 02:30";136
"29.03.2024 02:45";136
"29.03.2024 03:00";136
"29.03.2024 03:15";136
"29.03.2024 03:30";136
"29.03.2024 03:45";136
"29.03.2024 04:00";136
"29.03.2024 04:15";136
"29.03.2024 04:30";136
"29.03.2024 04:45";136
"29.03.2024 05:00";136
"29.03.2024 05:15";136
"29.03.2024 05:30";136
"29.03.2024 05:45";136
"29.03.2024 06:00";136
"29.03.2024 06:15";136
"29.03.2024 06:30";136
"29.03.2024 06:45";136
"29.03.2024 07:00";136
"29.03.2024 07:15";136
"29.03.2024 07:30";136
"29.03.2024 07:45";136
"29.03.2024 08:00";136
"29.03.2024 08:15";136
"29.03.2024 08:30";136
"29.03.2024 08:45";136
"29.03.2024 09:00";136
"29.03.2024 09:15";137
"29.03.2024 09:30";137
"29.03.2024 09:45";137
"29.03.2024 10:00";137
"29.03.2024 10:15";137
"29.03.2024 10:30";137
"29.03.2024 10:45";137
"29.03.2024 11:00";137
"29.03.2024 11:15";137
"29.03.2024 11:30";137
"29.03.2024 11:45";137
"29.03.2024 12:00";137
"29.03.2024 12:15";137
"29.03.2024 12:30";137
"29.03.2024 12:45";137
"29.03.2024 13:00";137
"29.03.2024 13:15";138
"29.03.2024 13:30";138
"29.03.2024 13:45";138
"29.03.2024 14:00";138
"29.03.2024 14:15";138
"29.03.2024 14:30";138
"29.03.2024 14:45";138
"29.03.2024 15:00";138
"29.03.2024 15:15";138
"29.03.2024 15:30";138
"29.03.2024 15:45";138
"29.03.2024 16:00";138
"29.03.2024 16:15";138
"29.03.2024 16:30";138
"29.03.2024 16:45";138
"29.03.2024 17:00";138
"29.03.2024 17:15";138
"29.03.2024 17:30";138
"29.03.2024 17:45";138
"29.03.2024 18:00";138
"29.03.2024 18:15";138
"29.03.2024 18:30";138
"29.03.2024 18:45";138
"29.03.2024 19:00";138
"29.03.2024 19:15";138
"29.03.2024 19:30";138
"29.03.2024 19:45";138